Language: 


Des rapports , des résumés tant et plus, au choix de chacun....


Données Historiques de Météogheer
Journalier Rapport pour Mars 1, 2018 Unitée:  Impériale    Métrique   Les deux
Suivant Jour »
Journalier Hebdomadaire Mensuel Annuel Sur mesure
  Max: Min: Moyenne:
Température: 34.5 °F 22.1 °F 28.4 °F
Point de rosée: 14 °F 5 °F 9.3 °F
Humidité: 54% 38% 45%
Vent: 22.1mph 6mph 11.8mph
Rafales: 23.9mph - -
Vent- - ENE
Pression: 29.7 in 29.4 in -
Pluie: 0 in    
Historical Graphs
 
 
Données tabulaires pour Mars 1, 2018
Heure Température Point de rosée Pression Vent Vent Rafales Humidité Pluie Taux (Horaire) Conditions
00:03 22.6 °F 5 °F 29.7 in East 19.9 mph 19.9 mph 47% 0 in
00:08 22.6 °F 5 °F 29.7 in NE 11 mph 19.9 mph 47% 0 in
00:13 22.6 °F 5 °F 29.7 in ENE 13.4 mph 19.9 mph 47% 0 in
00:18 22.6 °F 5 °F 29.7 in ENE 9.4 mph 23 mph 47% 0 in
00:23 22.6 °F 5 °F 29.7 in ENE 9.2 mph 23 mph 47% 0 in
00:28 22.6 °F 5 °F 29.7 in ENE 10.3 mph 17.7 mph 47% 0 in
00:33 22.6 °F 5 °F 29.7 in ENE 13.2 mph 17.7 mph 47% 0 in
00:38 22.6 °F 5 °F 29.7 in NE 10.1 mph 19.9 mph 47% 0 in
00:43 22.6 °F 5 °F 29.7 in East 11.2 mph 19.9 mph 47% 0 in
00:49 22.6 °F 5 °F 29.7 in ENE 13.9 mph 19.9 mph 47% 0 in
00:54 22.6 °F 5 °F 29.7 in East 14.3 mph 17.7 mph 47% 0 in
00:59 22.6 °F 5 °F 29.7 in East 9.6 mph 17.7 mph 47% 0 in
01:04 22.5 °F 5 °F 29.7 in ENE 12.3 mph 15.2 mph 47% 0 in
01:09 22.5 °F 5 °F 29.7 in ENE 14.5 mph 17.7 mph 47% 0 in
01:14 22.5 °F 5 °F 29.7 in East 11.9 mph 19.9 mph 47% 0 in
01:19 22.5 °F 5 °F 29.7 in NE 11.4 mph 19.9 mph 47% 0 in
01:24 22.5 °F 5 °F 29.7 in NNE 16.8 mph 17.4 mph 47% 0 in
01:29 22.5 °F 5 °F 29.7 in East 13.4 mph 19.9 mph 47% 0 in
01:34 22.5 °F 5 °F 29.7 in East 7.8 mph 19.9 mph 47% 0 in
01:39 22.5 °F 5 °F 29.7 in East 9.8 mph 15.4 mph 48% 0 in
01:44 22.5 °F 5 °F 29.7 in East 17 mph 17 mph 48% 0 in
01:49 22.5 °F 5 °F 29.7 in ENE 9.2 mph 19.7 mph 48% 0 in
01:54 22.3 °F 5 °F 29.7 in East 14.8 mph 19.7 mph 48% 0 in
01:59 22.3 °F 5 °F 29.7 in ENE 10.5 mph 20.4 mph 48% 0 in
02:04 22.3 °F 5 °F 29.7 in ENE 13.6 mph 20.4 mph 48% 0 in
02:09 22.1 °F 5 °F 29.7 in ENE 15.4 mph 19.9 mph 48% 0 in
02:14 22.1 °F 5 °F 29.7 in ENE 13.2 mph 19.9 mph 48% 0 in
02:19 22.1 °F 5 °F 29.7 in East 13.2 mph 17.4 mph 48% 0 in
02:24 22.1 °F 5 °F 29.7 in NE 11 mph 17.7 mph 48% 0 in
02:29 22.1 °F 5 °F 29.7 in East 12.8 mph 19.5 mph 48% 0 in
02:34 22.1 °F 5 °F 29.7 in East 17.7 mph 19.5 mph 48% 0 in
02:39 22.1 °F 5 °F 29.7 in East 22.1 mph 22.1 mph 48% 0 in
02:44 22.1 °F 5 °F 29.7 in ENE 13 mph 22.1 mph 49% 0 in
02:49 22.1 °F 5 °F 29.7 in East 13.2 mph 17.7 mph 49% 0 in
02:54 22.1 °F 5 °F 29.7 in East 11.4 mph 19.9 mph 49% 0 in
02:59 22.3 °F 5 °F 29.7 in NNE 16.3 mph 19.9 mph 49% 0 in
03:05 22.3 °F 5 °F 29.7 in NNE 13.2 mph 17.4 mph 49% 0 in
03:10 22.3 °F 5 °F 29.7 in ENE 12.5 mph 17.7 mph 49% 0 in
03:15 22.3 °F 5 °F 29.7 in ENE 8.9 mph 17.7 mph 49% 0 in
03:20 22.3 °F 5 °F 29.7 in NE 17.7 mph 17.7 mph 49% 0 in
03:25 22.3 °F 5 °F 29.7 in NE 15.2 mph 18.6 mph 49% 0 in
03:30 22.5 °F 5 °F 29.7 in NE 14.5 mph 18.6 mph 49% 0 in
03:35 22.5 °F 5 °F 29.7 in ENE 13.9 mph 17.7 mph 49% 0 in
03:40 22.5 °F 5 °F 29.7 in ENE 13 mph 17.9 mph 49% 0 in
03:45 22.5 °F 5 °F 29.7 in ENE 10.7 mph 20.1 mph 49% 0 in
03:50 22.5 °F 5 °F 29.7 in East 15.4 mph 22.4 mph 49% 0 in
03:55 22.5 °F 5 °F 29.7 in ENE 12.5 mph 22.4 mph 49% 0 in
04:00 22.5 °F 5 °F 29.6 in East 13.9 mph 19.7 mph 49% 0 in
04:06 22.5 °F 5 °F 29.6 in ENE 10.5 mph 19.7 mph 49% 0 in
04:11 22.5 °F 5 °F 29.6 in East 11 mph 15.4 mph 49% 0 in
04:16 22.6 °F 5 °F 29.6 in NNE 15.2 mph 17.9 mph 49% 0 in
04:21 22.6 °F 5 °F 29.6 in East 14.8 mph 17.9 mph 49% 0 in
04:26 22.6 °F 5 °F 29.6 in ENE 13.2 mph 17.7 mph 49% 0 in
04:31 22.6 °F 5 °F 29.6 in NE 11.2 mph 17.7 mph 49% 0 in
04:36 22.6 °F 5 °F 29.6 in ENE 10.1 mph 19.2 mph 49% 0 in
04:41 22.6 °F 5 °F 29.6 in NE 10.7 mph 22.8 mph 49% 0 in
04:46 22.6 °F 5 °F 29.6 in East 7.6 mph 22.8 mph 49% 0 in
04:51 22.8 °F 5 °F 29.6 in ENE 9.4 mph 16.3 mph 49% 0 in
04:56 22.8 °F 5 °F 29.6 in NE 11.2 mph 20.1 mph 49% 0 in
05:01 22.8 °F 5 °F 29.6 in East 11.9 mph 20.1 mph 49% 0 in
05:06 22.8 °F 5 °F 29.6 in East 12.8 mph 17.7 mph 49% 0 in
05:11 22.8 °F 5 °F 29.6 in ENE 10.5 mph 19.7 mph 48% 0 in
05:16 22.8 °F 5 °F 29.6 in East 13.2 mph 19.7 mph 48% 0 in
05:21 22.8 °F 5 °F 29.6 in ENE 9.6 mph 17.9 mph 49% 0 in
05:26 22.8 °F 5 °F 29.6 in East 12.8 mph 15.2 mph 49% 0 in
05:31 22.8 °F 5 °F 29.6 in East 12.8 mph 17.2 mph 49% 0 in
05:36 22.8 °F 5 °F 29.6 in NE 11 mph 18.8 mph 49% 0 in
05:41 22.8 °F 5 °F 29.6 in ESE 10.5 mph 18.8 mph 49% 0 in
05:46 23 °F 5 °F 29.6 in ENE 8.5 mph 18.1 mph 49% 0 in
05:51 22.8 °F 6.8 °F 29.6 in ENE 7.6 mph 16.1 mph 50% 0 in
05:56 22.8 °F 6.8 °F 29.6 in East 10.1 mph 19 mph 50% 0 in
06:01 22.8 °F 6.8 °F 29.6 in East 8.5 mph 19 mph 51% 0 in
06:06 22.8 °F 6.8 °F 29.6 in ENE 12.3 mph 17.9 mph 51% 0 in
06:11 22.8 °F 6.8 °F 29.6 in East 7.8 mph 17.4 mph 51% 0 in
06:16 22.8 °F 6.8 °F 29.6 in ENE 10.3 mph 17.7 mph 52% 0 in
06:21 22.8 °F 6.8 °F 29.6 in ENE 11 mph 17.7 mph 52% 0 in
06:27 22.8 °F 6.8 °F 29.6 in ENE 12.8 mph 16.1 mph 52% 0 in
06:32 22.8 °F 6.8 °F 29.6 in NE 10.5 mph 17.7 mph 52% 0 in
06:37 22.8 °F 6.8 °F 29.6 in East 11.9 mph 17.7 mph 52% 0 in
06:42 22.8 °F 6.8 °F 29.6 in NE 12.5 mph 20.4 mph 52% 0 in
06:47 22.8 °F 6.8 °F 29.6 in NE 7.8 mph 20.4 mph 53% 0 in
06:52 22.8 °F 6.8 °F 29.6 in East 10.1 mph 17.4 mph 53% 0 in
06:57 23 °F 6.8 °F 29.6 in East 12.3 mph 17.4 mph 52% 0 in
07:02 23 °F 6.8 °F 29.6 in East 11 mph 19.2 mph 51% 0 in
07:07 23.2 °F 6.8 °F 29.6 in ENE 13.9 mph 17.7 mph 50% 0 in
07:12 23.4 °F 6.8 °F 29.6 in NE 15.4 mph 15.4 mph 50% 0 in
07:17 23.4 °F 6.8 °F 29.6 in East 10.7 mph 17.4 mph 49% 0 in
07:22 23.4 °F 6.8 °F 29.6 in East 17 mph 17.4 mph 49% 0 in
07:27 23.4 °F 6.8 °F 29.6 in ENE 12.5 mph 17 mph 49% 0 in
07:32 23.4 °F 6.8 °F 29.6 in ENE 13 mph 23.3 mph 49% 0 in
07:38 23.5 °F 6.8 °F 29.6 in NE 10.1 mph 23.3 mph 49% 0 in
07:43 23.5 °F 6.8 °F 29.6 in East 10.5 mph 14.3 mph 49% 0 in
07:48 23.5 °F 6.8 °F 29.6 in East 10.1 mph 16.3 mph 49% 0 in
07:53 23.5 °F 6.8 °F 29.6 in East 14.1 mph 16.3 mph 48% 0 in
07:58 23.5 °F 6.8 °F 29.6 in ENE 12.8 mph 16.3 mph 48% 0 in
08:03 23.5 °F 6.8 °F 29.6 in East 9.6 mph 15.4 mph 48% 0 in
08:08 23.7 °F 6.8 °F 29.6 in ENE 12.3 mph 15.4 mph 48% 0 in
08:13 23.7 °F 6.8 °F 29.6 in NE 12.5 mph 17.7 mph 48% 0 in
08:18 23.7 °F 6.8 °F 29.6 in ENE 11.4 mph 19.5 mph 48% 0 in
08:23 23.9 °F 6.8 °F 29.6 in NE 14.5 mph 19.5 mph 48% 0 in
08:28 23.9 °F 6.8 °F 29.6 in East 17.2 mph 17.2 mph 48% 0 in
08:33 23.9 °F 6.8 °F 29.6 in East 17.4 mph 17.4 mph 48% 0 in
08:38 23.9 °F 6.8 °F 29.6 in ENE 12.3 mph 19.2 mph 49% 0 in
08:43 23.7 °F 6.8 °F 29.6 in ESE 10.7 mph 19.2 mph 50% 0 in
08:48 23.7 °F 8.6 °F 29.6 in ENE 12.8 mph 17 mph 52% 0 in
08:53 23.7 °F 8.6 °F 29.6 in ENE 8.1 mph 15.2 mph 52% 0 in
08:58 23.7 °F 8.6 °F 29.6 in East 12.8 mph 16.3 mph 53% 0 in
09:03 23.7 °F 8.6 °F 29.6 in ENE 12.3 mph 16.3 mph 54% 0 in
09:08 23.7 °F 8.6 °F 29.6 in East 15.4 mph 15.4 mph 54% 0 in
09:13 23.9 °F 8.6 °F 29.6 in ENE 8.5 mph 17 mph 53% 0 in
09:18 24.1 °F 8.6 °F 29.6 in East 13.2 mph 17.7 mph 53% 0 in
09:19 24.1 °F 8.6 °F 29.6 in East 10.3 mph 17.7 mph 53% 0 in
09:24 24.3 °F 8.6 °F 29.6 in East 14.8 mph 18.6 mph 52% 0 in
09:29 24.4 °F 8.6 °F 29.6 in East 11.4 mph 20.4 mph 52% 0 in
09:34 24.4 °F 8.6 °F 29.6 in ESE 15.9 mph 20.4 mph 51% 0 in
09:37 24.4 °F 8.6 °F 29.6 in ENE 12.3 mph 18.6 mph 51% 0 in
09:42 24.6 °F 8.6 °F 29.6 in ENE 7.8 mph 18.6 mph 51% 0 in
09:47 24.6 °F 8.6 °F 29.6 in East 10.1 mph 17 mph 51% 0 in
09:52 24.6 °F 8.6 °F 29.6 in East 13.2 mph 15.9 mph 51% 0 in
09:57 24.8 °F 8.6 °F 29.6 in East 14.8 mph 15.9 mph 51% 0 in
10:02 25 °F 8.6 °F 29.6 in East 11 mph 17.2 mph 50% 0 in
10:08 25 °F 8.6 °F 29.6 in East 15.4 mph 17.7 mph 49% 0 in
10:13 25 °F 8.6 °F 29.6 in ENE 10.7 mph 18.6 mph 49% 0 in
10:18 25.2 °F 8.6 °F 29.6 in East 17 mph 19 mph 49% 0 in
10:19 25.2 °F 8.6 °F 29.6 in ENE 10.7 mph 19 mph 50% 0 in
10:24 25.3 °F 8.6 °F 29.6 in ESE 6.3 mph 19 mph 49% 0 in
10:29 25.5 °F 8.6 °F 29.6 in ESE 8.5 mph 16.8 mph 50% 0 in
10:34 25.5 °F 8.6 °F 29.6 in ENE 10.3 mph 14.8 mph 49% 0 in
10:35 25.7 °F 8.6 °F 29.6 in ESE 12.3 mph 14.8 mph 49% 0 in
10:39 25.7 °F 8.6 °F 29.6 in ENE 10.5 mph 17.7 mph 49% 0 in
10:40 25.7 °F 8.6 °F 29.6 in East 11 mph 17.7 mph 49% 0 in
10:45 25.7 °F 8.6 °F 29.6 in ENE 13.2 mph 19.9 mph 48% 0 in
10:50 25.9 °F 8.6 °F 29.6 in East 13.2 mph 19.9 mph 49% 0 in
10:55 25.9 °F 8.6 °F 29.6 in East 12.3 mph 23.9 mph 49% 0 in
11:00 26.1 °F 8.6 °F 29.6 in East 7.8 mph 23.9 mph 49% 0 in
11:05 26.2 °F 8.6 °F 29.6 in East 10.7 mph 17.7 mph 49% 0 in
11:10 26.4 °F 8.6 °F 29.6 in ESE 10.7 mph 19.7 mph 49% 0 in
11:15 26.8 °F 8.6 °F 29.6 in ESE 10.3 mph 19.7 mph 49% 0 in
11:20 27 °F 10.4 °F 29.6 in ENE 9.8 mph 17.4 mph 50% 0 in
11:25 27 °F 10.4 °F 29.6 in East 12.5 mph 18.6 mph 50% 0 in
11:30 27.1 °F 10.4 °F 29.6 in ENE 16.8 mph 18.6 mph 49% 0 in
11:35 27.5 °F 10.4 °F 29.6 in ESE 13 mph 17.4 mph 49% 0 in
11:40 27.7 °F 10.4 °F 29.6 in East 14.5 mph 21.3 mph 49% 0 in
11:45 27.9 °F 10.4 °F 29.6 in NE 6 mph 21.3 mph 48% 0 in
11:50 28 °F 10.4 °F 29.6 in East 8.7 mph 15.4 mph 48% 0 in
11:56 28 °F 10.4 °F 29.6 in East 10.7 mph 17 mph 47% 0 in
12:01 28.2 °F 10.4 °F 29.6 in ENE 13.2 mph 18.1 mph 47% 0 in
12:06 28.6 °F 10.4 °F 29.6 in ENE 13 mph 18.1 mph 46% 0 in
12:11 28.8 °F 10.4 °F 29.6 in East 14.5 mph 17.4 mph 46% 0 in
12:16 29.1 °F 10.4 °F 29.5 in ESE 15.7 mph 17.4 mph 46% 0 in
12:21 29.1 °F 10.4 °F 29.5 in ENE 15.4 mph 19.9 mph 45% 0 in
12:26 29.5 °F 10.4 °F 29.5 in East 12.5 mph 19.9 mph 45% 0 in
12:31 29.8 °F 10.4 °F 29.5 in East 10.3 mph 20.6 mph 45% 0 in
12:36 30 °F 10.4 °F 29.5 in ENE 10.7 mph 20.6 mph 45% 0 in
12:41 30.4 °F 10.4 °F 29.5 in ENE 11.2 mph 17.7 mph 45% 0 in
12:46 30.6 °F 10.4 °F 29.5 in East 10.1 mph 17.7 mph 44% 0 in
12:51 30.6 °F 10.4 °F 29.5 in East 12.3 mph 16.6 mph 44% 0 in
12:56 30.7 °F 10.4 °F 29.5 in ESE 13 mph 17.4 mph 44% 0 in
13:01 31.1 °F 10.4 °F 29.5 in ENE 10.1 mph 17.7 mph 44% 0 in
13:06 31.3 °F 10.4 °F 29.5 in ENE 14.8 mph 17.7 mph 44% 0 in
13:11 31.5 °F 10.4 °F 29.5 in East 12.3 mph 19 mph 44% 0 in
13:16 31.6 °F 12.2 °F 29.5 in NE 15.2 mph 20.1 mph 44% 0 in
13:21 31.8 °F 12.2 °F 29.5 in NE 11 mph 20.1 mph 44% 0 in
13:26 32.4 °F 14 °F 29.5 in East 8.5 mph 17.7 mph 44% 0 in
13:31 32.5 °F 12.2 °F 29.5 in East 12.8 mph 17.2 mph 43% 0 in
13:36 32.5 °F 12.2 °F 29.5 in ENE 12.5 mph 17.4 mph 43% 0 in
13:41 32.5 °F 12.2 °F 29.5 in East 14.1 mph 19.9 mph 43% 0 in
13:46 32.5 °F 12.2 °F 29.5 in East 13 mph 19.9 mph 43% 0 in
13:51 32.5 °F 12.2 °F 29.5 in East 15.7 mph 19.5 mph 43% 0 in
13:56 32.5 °F 12.2 °F 29.5 in ESE 17.7 mph 19.5 mph 42% 0 in
14:01 32.5 °F 12.2 °F 29.5 in ENE 10.1 mph 17.7 mph 42% 0 in
14:06 32.5 °F 12.2 °F 29.5 in East 12.3 mph 16.6 mph 42% 0 in
14:12 32.5 °F 12.2 °F 29.5 in ENE 8.5 mph 16.6 mph 42% 0 in
14:17 32.5 °F 12.2 °F 29.5 in ESE 8.5 mph 15.9 mph 42% 0 in
14:22 32.5 °F 12.2 °F 29.5 in East 12.3 mph 15.4 mph 42% 0 in
14:27 32.7 °F 12.2 °F 29.5 in NE 6.5 mph 15.4 mph 42% 0 in
14:32 32.7 °F 12.2 °F 29.5 in ENE 15.9 mph 17.2 mph 42% 0 in
14:37 32.9 °F 12.2 °F 29.5 in ESE 13.9 mph 17.2 mph 42% 0 in
14:42 33.1 °F 12.2 °F 29.5 in East 8.1 mph 16.6 mph 42% 0 in
14:47 33.1 °F 12.2 °F 29.5 in East 9.6 mph 14.8 mph 42% 0 in
14:52 33.3 °F 12.2 °F 29.5 in East 15.2 mph 19.9 mph 42% 0 in
14:57 33.3 °F 12.2 °F 29.5 in East 9.8 mph 19.9 mph 42% 0 in
15:02 33.4 °F 12.2 °F 29.5 in NE 12.5 mph 15.9 mph 41% 0 in
15:07 33.4 °F 12.2 °F 29.5 in ENE 10.7 mph 17.7 mph 41% 0 in
15:12 33.6 °F 12.2 °F 29.5 in ESE 12.3 mph 17.7 mph 41% 0 in
15:17 33.6 °F 12.2 °F 29.4 in East 9.8 mph 17.7 mph 41% 0 in
15:22 33.6 °F 12.2 °F 29.4 in East 8.9 mph 16.8 mph 41% 0 in
15:27 33.8 °F 12.2 °F 29.4 in East 13.4 mph 17.4 mph 41% 0 in
15:32 33.8 °F 12.2 °F 29.4 in NE 7.6 mph 17.4 mph 40% 0 in
15:37 34 °F 12.2 °F 29.4 in East 11.2 mph 17.4 mph 41% 0 in
15:42 33.8 °F 12.2 °F 29.4 in ENE 12.5 mph 18.1 mph 40% 0 in
15:48 33.8 °F 12.2 °F 29.4 in ENE 7.8 mph 18.1 mph 40% 0 in
15:53 33.8 °F 12.2 °F 29.4 in East 12.3 mph 17.2 mph 40% 0 in
15:58 33.8 °F 12.2 °F 29.4 in East 13 mph 19.2 mph 40% 0 in
16:03 33.8 °F 12.2 °F 29.4 in East 10.1 mph 19.2 mph 40% 0 in
16:08 33.8 °F 12.2 °F 29.4 in NE 10.5 mph 17 mph 40% 0 in
16:13 33.8 °F 12.2 °F 29.4 in East 12.5 mph 15.4 mph 40% 0 in
16:18 33.8 °F 12.2 °F 29.4 in ENE 7.8 mph 16.6 mph 40% 0 in
16:23 33.8 °F 12.2 °F 29.4 in East 12.3 mph 19.5 mph 40% 0 in
16:28 33.8 °F 12.2 °F 29.4 in NE 14.8 mph 19.5 mph 40% 0 in
16:33 33.8 °F 12.2 °F 29.4 in East 8.1 mph 17.7 mph 40% 0 in
16:38 33.8 °F 12.2 °F 29.4 in East 7.4 mph 16.1 mph 40% 0 in
16:43 33.8 °F 12.2 °F 29.4 in ENE 11.9 mph 15.4 mph 40% 0 in
16:48 34 °F 12.2 °F 29.4 in East 12.8 mph 15.4 mph 40% 0 in
16:53 34 °F 12.2 °F 29.4 in ESE 10.7 mph 19.7 mph 40% 0 in
16:58 34.2 °F 12.2 °F 29.4 in ENE 13.2 mph 19.7 mph 40% 0 in
17:03 34.3 °F 12.2 °F 29.4 in ENE 10.3 mph 16.6 mph 40% 0 in
17:08 34.3 °F 12.2 °F 29.4 in East 12.8 mph 17.2 mph 40% 0 in
17:13 34.3 °F 12.2 °F 29.4 in ENE 10.5 mph 17.9 mph 40% 0 in
17:18 34.5 °F 12.2 °F 29.4 in ENE 10.5 mph 17.9 mph 40% 0 in
17:23 34.5 °F 12.2 °F 29.4 in ENE 12.3 mph 15.4 mph 40% 0 in
17:28 34.5 °F 12.2 °F 29.4 in ESE 12.8 mph 13.4 mph 40% 0 in
17:33 34.5 °F 12.2 °F 29.4 in East 11 mph 17 mph 40% 0 in
17:38 34.5 °F 12.2 °F 29.4 in East 10.1 mph 17.2 mph 40% 0 in
17:43 34.5 °F 12.2 °F 29.4 in ENE 12.8 mph 17.2 mph 40% 0 in
17:48 34.5 °F 12.2 °F 29.4 in East 10.5 mph 15.9 mph 40% 0 in
17:53 34.5 °F 12.2 °F 29.4 in East 12.3 mph 14.3 mph 40% 0 in
17:58 34.5 °F 12.2 °F 29.4 in ENE 8.7 mph 17 mph 39% 0 in
18:03 34.5 °F 12.2 °F 29.4 in ENE 10.7 mph 17 mph 40% 0 in
18:09 34.5 °F 12.2 °F 29.4 in East 12.5 mph 19.5 mph 39% 0 in
18:14 34.5 °F 12.2 °F 29.4 in East 12.8 mph 19.5 mph 39% 0 in
18:19 34.5 °F 12.2 °F 29.4 in NNE 10.1 mph 22.1 mph 40% 0 in
18:24 34.5 °F 12.2 °F 29.4 in ENE 8.7 mph 22.1 mph 40% 0 in
18:29 34.5 °F 12.2 °F 29.4 in East 7.6 mph 15.9 mph 39% 0 in
18:34 34.5 °F 12.2 °F 29.4 in East 10.1 mph 13.4 mph 39% 0 in
18:39 34.5 °F 12.2 °F 29.4 in ENE 12.3 mph 13.9 mph 39% 0 in
18:44 34.5 °F 12.2 °F 29.4 in East 14.3 mph 19.9 mph 39% 0 in
18:49 34.5 °F 12.2 °F 29.4 in East 9.4 mph 19.9 mph 39% 0 in
18:54 34.5 °F 12.2 °F 29.4 in ENE 13.2 mph 23.7 mph 39% 0 in
18:59 34.5 °F 12.2 °F 29.4 in East 11.2 mph 23.7 mph 39% 0 in
19:04 34.5 °F 12.2 °F 29.4 in East 7.8 mph 19.7 mph 39% 0 in
19:09 34.5 °F 12.2 °F 29.4 in ENE 12.8 mph 17.7 mph 39% 0 in
19:14 34.5 °F 12.2 °F 29.4 in East 13 mph 17.7 mph 39% 0 in
19:19 34.5 °F 12.2 °F 29.4 in ENE 10.7 mph 17.7 mph 39% 0 in
19:24 34.5 °F 12.2 °F 29.4 in NE 10.5 mph 17.7 mph 39% 0 in
19:29 34.3 °F 12.2 °F 29.4 in ENE 17 mph 18.1 mph 39% 0 in
19:34 34.3 °F 12.2 °F 29.4 in East 9.8 mph 19.5 mph 39% 0 in
19:39 34.3 °F 12.2 °F 29.4 in ENE 17 mph 19.5 mph 39% 0 in
19:44 34.3 °F 12.2 °F 29.4 in ENE 13.2 mph 20.8 mph 39% 0 in
19:49 34.3 °F 12.2 °F 29.4 in East 12.3 mph 20.8 mph 39% 0 in
19:54 34.3 °F 12.2 °F 29.4 in ENE 10.3 mph 17.7 mph 39% 0 in
19:59 34.3 °F 12.2 °F 29.4 in ENE 15.9 mph 17.7 mph 39% 0 in
20:04 34.3 °F 12.2 °F 29.4 in NE 10.1 mph 15.9 mph 39% 0 in
20:09 34.3 °F 12.2 °F 29.4 in ESE 12.5 mph 17.7 mph 38% 0 in
20:15 34.3 °F 12.2 °F 29.4 in ENE 8.9 mph 17.7 mph 39% 0 in
20:20 34.3 °F 12.2 °F 29.4 in ESE 14.3 mph 20.1 mph 38% 0 in
20:25 34.3 °F 12.2 °F 29.4 in East 13.2 mph 20.1 mph 38% 0 in
20:30 34.3 °F 12.2 °F 29.4 in ENE 15.2 mph 17 mph 39% 0 in
20:35 34.3 °F 12.2 °F 29.4 in East 14.5 mph 17 mph 38% 0 in
20:40 34.3 °F 12.2 °F 29.4 in East 11 mph 18.6 mph 38% 0 in
20:45 34.3 °F 12.2 °F 29.4 in East 12.8 mph 18.6 mph 38% 0 in
20:50 34.3 °F 12.2 °F 29.4 in East 10.7 mph 16.8 mph 38% 0 in
20:55 34.3 °F 12.2 °F 29.4 in East 12.3 mph 17.7 mph 38% 0 in
21:00 34.3 °F 12.2 °F 29.4 in East 10.5 mph 18.1 mph 38% 0 in
21:05 34.3 °F 12.2 °F 29.4 in East 7.4 mph 18.1 mph 38% 0 in
21:10 34.3 °F 12.2 °F 29.4 in East 8.7 mph 15.2 mph 38% 0 in
21:15 34.3 °F 12.2 °F 29.4 in ENE 7.8 mph 17.7 mph 38% 0 in
21:20 34.3 °F 12.2 °F 29.4 in ENE 11 mph 17.7 mph 38% 0 in
21:25 34.3 °F 12.2 °F 29.4 in ENE 12.3 mph 13.4 mph 38% 0 in
21:31 34.3 °F 12.2 °F 29.4 in East 13.6 mph 16.8 mph 38% 0 in
21:36 34.3 °F 12.2 °F 29.4 in ENE 10.1 mph 16.8 mph 38% 0 in
21:41 34.2 °F 12.2 °F 29.4 in East 8.5 mph 13 mph 39% 0 in
21:46 34.3 °F 12.2 °F 29.4 in ESE 13.9 mph 17.7 mph 38% 0 in
21:51 34.3 °F 12.2 °F 29.4 in ENE 12.5 mph 17.7 mph 38% 0 in
21:56 34.2 °F 12.2 °F 29.4 in East 8.5 mph 17.4 mph 39% 0 in
22:01 34.2 °F 12.2 °F 29.4 in East 7.8 mph 15.4 mph 38% 0 in
22:06 34.2 °F 12.2 °F 29.4 in ENE 11 mph 17 mph 38% 0 in
22:11 34.2 °F 12.2 °F 29.4 in ENE 7.6 mph 17 mph 39% 0 in
22:16 34.2 °F 12.2 °F 29.4 in ESE 10.7 mph 14.5 mph 39% 0 in
22:21 34.2 °F 12.2 °F 29.4 in East 11 mph 16.6 mph 39% 0 in
22:26 34.2 °F 12.2 °F 29.4 in NNE 14.5 mph 16.6 mph 39% 0 in
22:31 34 °F 12.2 °F 29.4 in ENE 8.7 mph 17.2 mph 39% 0 in
22:36 34 °F 12.2 °F 29.4 in East 10.5 mph 17.2 mph 39% 0 in
22:41 34 °F 12.2 °F 29.4 in ENE 13.2 mph 15.2 mph 39% 0 in
22:46 34 °F 12.2 °F 29.4 in East 10.1 mph 15.2 mph 39% 0 in
22:51 33.8 °F 12.2 °F 29.4 in East 9.8 mph 15.2 mph 39% 0 in
22:56 33.8 °F 12.2 °F 29.4 in East 15.4 mph 15.4 mph 39% 0 in
23:01 33.8 °F 12.2 °F 29.4 in NE 11 mph 19.9 mph 39% 0 in
23:06 33.8 °F 12.2 °F 29.4 in East 12.5 mph 19.9 mph 39% 0 in
23:11 33.6 °F 12.2 °F 29.4 in NE 7.6 mph 19.9 mph 40% 0 in
23:16 33.6 °F 12.2 °F 29.4 in East 12.3 mph 16.6 mph 40% 0 in
23:21 33.6 °F 12.2 °F 29.4 in ENE 11.9 mph 16.6 mph 40% 0 in
23:26 33.6 °F 12.2 °F 29.4 in ENE 13.9 mph 17.4 mph 40% 0 in
23:31 33.6 °F 12.2 °F 29.4 in ENE 9.2 mph 17.4 mph 40% 0 in
23:36 33.4 °F 12.2 °F 29.4 in East 9.4 mph 15.2 mph 40% 0 in
23:41 33.4 °F 12.2 °F 29.4 in ENE 10.7 mph 14.8 mph 40% 0 in
23:46 33.4 °F 12.2 °F 29.4 in ENE 13.2 mph 17.2 mph 40% 0 in
23:51 33.4 °F 12.2 °F 29.4 in East 7.8 mph 17.2 mph 40% 0 in
23:56 33.4 °F 12.2 °F 29.4 in East 15.2 mph 15.2 mph 40% 0 in
Données Historique de Météo Turbie

Mise a jour : 18/06/2018 02:03:20
Généré par Cumulus 1.9.4 (1099)